This demonstration page uses our WeatherBlox Daily Observations layout. Learn more.

Left ArrowRight Arrow

39.51506, -84.39828

Hourly Observations for May 24, 2015

Temp ( °F °C ) Dew Point ( °F °C ) Humidity (%) Winds ( mph kmh ) Pressure ( in mb ) Visibility ( mi km ) Precip ( " mm )
12:15 am 00:15 Clear 57 13.8 49 9.5 75 75 Calm 30.30 1026 10 16 0.00 0.00
12:35 am 00:35 Clear 57 13.8 49 9.7 76 76 Calm 30.30 1026 10 16 0.00 0.00
12:55 am 00:55 Clear 56 13.6 49 9.4 76 76 Calm 30.30 1026 10 16 0.00 0.00
1:15 am 01:15 Clear 56 13.3 49 9.7 79 79 Calm 30.30 1026 10 16 0.00 0.00
1:35 am 01:35 Clear 55 12.5 49 9.5 82 82 Calm 30.30 1026 10 16 0.00 0.00
1:55 am 01:55 Clear 55 12.5 49 9.6 83 83 Calm 30.27 1025 10 16 0.00 0.00
2:15 am 02:15 Clear 55 12.5 49 9.4 82 82 Calm 30.27 1025 10 16 0.00 0.00
2:35 am 02:35 Clear 55 12.5 50 9.9 84 84 Calm 30.27 1025 10 16 0.00 0.00
2:55 am 02:55 Clear 55 12.5 49 9.7 83 83 Calm 30.27 1025 10 16 0.00 0.00
3:15 am 03:15 Clear 55 12.5 49 9.6 83 83 Calm 30.30 1026 10 16 0.00 0.00
3:35 am 03:35 Clear 52 11.2 48 8.8 85 85 Calm 30.27 1025 10 16 0.00 0.00
3:55 am 03:55 Clear 52 11.3 48 8.8 85 85 Calm 30.30 1026 10 16 0.00 0.00
4:15 am 04:15 Clear 52 11 47 8.5 85 85 Calm 30.30 1026 10 16 0.00 0.00
4:35 am 04:35 Clear 52 11 47 8.5 85 85 Calm 30.30 1026 10 16 0.00 0.00
4:55 am 04:55 Clear 55 12.5 50 10 85 85 Calm 30.30 1026 10 16 0.00 0.00
5:15 am 05:15 Clear 52 11 47 8.6 85 85 Calm 30.30 1026 10 16 0.00 0.00
5:35 am 05:35 Clear 52 10.9 47 8.6 86 86 Calm 30.30 1026 10 16 0.00 0.00
5:55 am 05:55 Clear 50 10 46 7.7 86 86 Calm 30.30 1026 10 16 0.00 0.00
6:15 am 06:15 Clear 51 10.8 47 8.3 85 85 Calm 30.30 1026 10 16 0.00 0.00
6:35 am 06:35 Sunny 52 11 48 8.7 86 86 Calm 30.30 1026 10 16 0.00 0.00
6:55 am 06:55 Sunny 54 12.3 50 9.9 85 85 Calm 30.30 1026 10 16 0.00 0.00
7:15 am 07:15 Sunny 55 12.5 50 10 85 85 Calm 30.30 1026 10 16 0.00 0.00
7:35 am 07:35 Sunny 55 12.5 50 9.9 84 84 Calm 30.30 1026 10 16 0.00 0.00
7:55 am 07:55 Sunny 57 13.9 51 10.6 81 81 Calm 30.30 1026 10 16 0.00 0.00
8:15 am 08:15 Sunny 60 15.4 51 10.6 73 73 Calm 30.30 1026 10 16 0.00 0.00
8:35 am 08:35 Sunny 62 16.6 51 10.5 67 67 Calm 30.30 1026 10 16 0.00 0.00
8:55 am 08:55 Sunny 69 20.8 52 11.1 54 54 Calm 30.27 1025 10 16 0.00 0.00
9:15 am 09:15 Sunny 69 20.8 50 10.1 51 51 SSE 5 7 30.27 1025 10 16 0.00 0.00
9:35 am 09:35 Sunny 70 21.1 51 10.5 51 51 SSE 3 6 30.27 1025 10 16 0.00 0.00
9:55 am 09:55 Sunny 74 23.6 53 11.7 47 47 S 5 7 30.27 1025 10 16 0.00 0.00
10:15 am 10:15 Sunny 74 23.6 50 10.2 43 43 SW 10 17 30.27 1025 10 16 0.00 0.00
10:35 am 10:35 Sunny 74 23.6 50 9.9 42 42 SW 7 11 30.27 1025 10 16 0.00 0.00
10:55 am 10:55 Partly Cloudy 77 25 51 10.5 40 40 SW 9 15 30.27 1025 10 16 0.00 0.00
11:15 am 11:15 Mostly Cloudy 79 26.2 53 11.5 40 40 WSW 10 17 30.27 1025 10 16 0.00 0.00
11:35 am 11:35 Partly Cloudy 80 26.5 51 10.8 37 37 SW 10 17 30.24 1024 10 16 0.00 0.00
11:55 am 11:55 Partly Cloudy 77 25.1 49 9.7 38 38 WSW 12 19 30.24 1024 10 16 0.00 0.00
12:15 pm 12:15 Mostly Cloudy 77 25 53 11.4 43 43 WNW 10 17 30.24 1024 10 16 0.00 0.00
12:35 pm 12:35 Mostly Cloudy 78 25.7 52 10.9 40 40 SW 7 11 30.24 1024 10 16 0.00 0.00
12:55 pm 12:55 Partly Cloudy 80 26.8 50 10.2 35 35 SSW 9 15 30.24 1024 10 16 0.00 0.00
1:15 pm 13:15 Partly Cloudy 81 27.4 50 10.2 34 34 SW 13 20 30.21 1023 10 16 0.00 0.00
1:35 pm 13:35 Sunny 82 27.8 49 9.7 32 32 SW 14 22 30.21 1023 10 16 0.00 0.00
1:55 pm 13:55 Partly Cloudy 83 28.1 51 10.6 34 34 SW 10 17 30.21 1023 10 16 0.00 0.00
2:15 pm 14:15 Partly Cloudy 82 28 48 9.1 31 31 S 8 13 30.18 1022 10 16 0.00 0.00
2:35 pm 14:35 Partly Cloudy 82 28 48 9 30 30 SSW 10 17 30.18 1022 10 16 0.00 0.00
2:55 pm 14:55 Sunny 82 27.9 47 8.6 30 30 S 9 15 30.18 1022 10 16 0.00 0.00
3:15 pm 15:15 Sunny 83 28.3 47 8.6 29 29 SSW 13 20 30.18 1022 10 16 0.00 0.00
3:35 pm 15:35 Sunny 84 28.8 46 7.9 27 27 SW 8 13 30.18 1022 10 16 0.00 0.00
3:55 pm 15:55 Sunny 84 28.7 44 6.8 25 25 S 13 20 30.15 1021 10 16 0.00 0.00
4:15 pm 16:15 Sunny 85 29.2 46 7.6 26 26 SSW 12 19 30.15 1021 10 16 0.00 0.00
4:35 pm 16:35 Sunny 85 29.3 45 7 25 25 SW 15 24 30.15 1021 10 16 0.00 0.00
4:55 pm 16:55 Sunny 84 29.1 45 7 25 25 SSW 12 19 30.15 1021 10 16 0.00 0.00
5:15 pm 17:15 Sunny 84 29.1 46 7.7 26 26 S 13 20 30.12 1020 10 16 0.00 0.00
5:35 pm 17:35 Sunny 84 29.1 45 7.2 25 25 SSW 10 17 30.12 1020 10 16 0.00 0.00
5:55 pm 17:55 Sunny 83 28.6 45 7.2 26 26 SSW 12 19 30.12 1020 10 16 0.00 0.00
6:15 pm 18:15 Sunny 83 28.6 45 7.2 26 26 SSW 13 20 30.12 1020 10 16 0.00 0.00
6:35 pm 18:35 Sunny 83 28.5 44 6.9 26 26 S 14 22 30.09 1019 10 16 0.00 0.00
6:55 pm 18:55 Sunny 83 28.2 45 7 26 26 S 8 13 30.09 1019 10 16 0.00 0.00
7:15 pm 19:15 Sunny 82 28 46 7.6 28 28 SSE 10 17 30.09 1019 10 16 0.00 0.00
7:35 pm 19:35 Sunny 82 27.9 45 7.4 27 27 S 12 19 30.09 1019 10 16 0.00 0.00
7:55 pm 19:55 Sunny 81 27.2 44 6.9 28 28 S 10 17 30.09 1019 10 16 0.00 0.00
8:15 pm 20:15 Sunny 80 26.6 45 7.2 29 29 S 10 17 30.09 1019 10 16 0.00 0.00
8:35 pm 20:35 Sunny 80 26.6 43 6.2 27 27 S 10 17 30.09 1019 10 16 0.00 0.00
8:55 pm 20:55 Clear 80 26.5 45 7.2 29 29 S 7 11 30.09 1019 10 16 0.00 0.00
9:15 pm 21:15 Clear 78 25.5 45 7.4 32 32 S 8 13 30.09 1019 10 16 0.00 0.00
9:35 pm 21:35 Clear 77 25.1 45 7 31 31 S 8 13 30.09 1019 10 16 0.00 0.00
9:55 pm 21:55 Clear 77 25.1 46 7.6 33 33 S 7 11 30.09 1019 10 16 0.00 0.00
10:15 pm 22:15 Clear 77 25.1 46 7.8 33 33 S 7 11 30.09 1019 10 16 0.00 0.00
10:35 pm 22:35 Clear 76 24.3 45 7.2 34 34 S 5 7 30.09 1019 10 16 0.00 0.00
10:55 pm 22:55 Clear 75 23.9 45 7.3 35 35 S 7 11 30.12 1020 10 16 0.00 0.00
11:15 pm 23:15 Clear 74 23.6 49 9.6 41 41 Calm 30.12 1020 10 16 0.00 0.00
11:35 pm 23:35 Clear 69 20.8 48 9 47 47 SW 3 6 30.12 1020 10 16 0.00 0.00
11:55 pm 23:55 Clear 69 20.8 49 9.7 49 49 Calm 30.09 1019 10 16 0.00 0.00

Powered by AerisWeather